Terminal Aerodrome Forecast
Issued by NWS

Home | Current Version | Previous Version | Text Only | Print | Product List | Glossary On
Versions: 1 2 3 4 5 6 7 8 9 10 11 12 13 14 15 16 17 18 19 20 21
000
FTAK31 PANC 241430 AAA
TAFAIL
TAF AMD
PAIL 241430Z 2415/2512 VRB04KT 5SM -SN BR OVC035
      TEMPO 2415/2418 1 1/2SM -SN BKN025
     FM241800 33008KT P6SM SCT025 BKN045
     FM242100 31008KT P6SM SCT060=

USA.gov is the U.S. government's official web portal to all federal, state and local government web resources and services.